Regional Weather Roundup
Issued by NWS Grand Forks, ND

Home | Current Version | Previous Version | Text Only | Print | Product List | Glossary Off
Versions: 1 2 3 4 5 6 7 8 9 10 11 12 13 14 15 16 17 18 19 20 21 22 23 24 25 26 27 28 29 30 31 32 33 34 35 36 37 38 39 40 41 42 43 44 45 46 47 48 49 50

000
ASUS43 KFGF 260231
RWRFGF
PRAIRIE TO PINES  WEATHER ROUNDUP
NATIONAL WEATHER SERVICE EASTERN NORTH DAKOTA/GRAND FORKS ND
800 PM CST SUN JAN 25 2015

 **SATELLITE DATA USED TO AUGMENT SKY COVER AT AUTOMATED STATIONS**
 *****  WEATHER ACROSS EASTERN NORTH DAKOTA  *****

CITY           SKY/WX    TMP DP  RH WIND       PRES   REMARKS
GRAND FORKS    CLOUDY    26  19  74 S15       29.85F WCI  14
GRAND FRKS AFB CLOUDY    27  21  80 S8        29.86R WCI  18
GRAND FRKS NWS   N/A     25 N/A N/A S18         N/A  WCI  11
DEVILS LAKE    MOCLDY    28  27  93 S14       29.76F WCI  17
FARGO          CLOUDY    26  19  74 S12       29.92F WCI  16
WAHPETON ARPT  CLOUDY    27  21  80 S10       29.95F WCI  17
$$

 ***** WEATHER ACROSS CENTRAL AND WESTERN NORTH DAKOTA  *****

CITY           SKY/WX    TMP DP  RH WIND       PRES   REMARKS
BISMARCK       CLOUDY    36  32  85 S3        29.84F
MINOT          CLOUDY    37  31  78 SW18G28   29.73F
JAMESTOWN      CLOUDY    31  29  92 S8        29.86F WCI  23
MINOT AFB      CLOUDY    37  36  98 SW12      29.71F
GARRISON         N/A     35  32  88 S8        29.77F
WILLISTON      MOCLDY    40  33  76 SW9       29.80R
DICKINSON      MOCLDY    43  34  70 W14       29.81F
HETTINGER      MOCLDY    42  33  70 W12       29.87F
$$

 *****  OTHER AIRPORT OBSERVATIONS IN OUR AREA  *****

CITY           SKY/WX    TMP DP  RH WIND       PRES   REMARKS
WALHALLA         N/A     27  27 100 S9        29.75F WCI  17
GRAFTON AIRPOR NOT AVBL
VALLEY CITY AR NOT AVBL
CANDO          CLOUDY    28  27  93 S6        29.76F WCI  22
CAVALIER APRT  MIX PCPN  27  23  86 S13G22    29.79F WCI  16
GWINNER        CLOUDY    30  30 100 SW13      29.93F WCI  20
ROLLA          CLOUDY    27  27 100 SW21      29.68F WCI  13
 ***** THE ABOVE OBSERVATIONS ARE NON NWS ARE NOT QUALITY
       CONTROLLED AND MAY MIS-REPORT RAIN FOR SNOW...
$$

  *****  WEATHER ACROSS NORTHERN MINNESOTA  *****

CITY           SKY/WX    TMP DP  RH WIND       PRES   REMARKS
FLAG ISLAND    CLOUDY    18  10  73 S12       29.81F WCI   5
WARROAD        CLOUDY    19  12  73 S6        29.84F WCI  11
ROSEAU         CLOUDY    19  14  79 S10       29.83F WCI   8
HALLOCK        CLOUDY    25  19  80 S18       29.82F WCI  11
THF RVR FALLS  CLOUDY    23  18  80 S13       29.86F WCI  11
BAUDETTE       CLOUDY    21  14  74 S8        29.85F WCI  11
WASKISH        CLOUDY    19  18  93 CALM      29.87F
CROOKSTON      CLOUDY    25  19  80 S15       29.88F WCI  12
STEPHEN NDAWN    N/A     23  19  86 S16         N/A  WCI  10
GREENBUSH NDAW   N/A     21  18  86 S13         N/A  WCI   9
$$
  *****  WEATHER ACROSS CENTRAL AND WEST MINNESOTA  *****

CITY           SKY/WX    TMP DP  RH WIND       PRES   REMARKS
FOSSTON        CLOUDY    21  16  79 S12       29.88F WCI   9
BEMIDJI        CLOUDY    25  18  76 S7        29.88F WCI  17
PARK RAPIDS    CLOUDY    25  19  78 S8        29.90F WCI  16
ELBOW LAKE     CLOUDY    23  22  94 S7        29.96F WCI  15
WADENA         CLOUDY    23  19  86 SW5       29.94F WCI  17
DETROIT LAKES  CLOUDY    25  19  80 S8        29.92F WCI  16
MOORHEAD       CLOUDY    27  25  93 S12       29.92F WCI  16
FERGUS FALLS   CLOUDY    23  21  93 S7        29.98F WCI  15
MORRIS MN      MOCLDY    25  23  93 S6        29.98F WCI  18
STAPLES        CLOUDY    23  19  86 S6        29.94F WCI  16
$$
  *****  WEATHER ELSEWHERE ACROSS MINNESOTA  *****

CITY           SKY/WX    TMP DP  RH WIND       PRES   REMARKS
DULUTH         CLOUDY    18  13  80 SE3       29.97F
INTRNTL FALLS  CLOUDY    20  12  71 S5        29.88F WCI  13
ELY            CLOUDY    16  10  79 S9        29.94F WCI   4
CLOQUET        CLOUDY    18  12  79 CALM      29.97F
WHEATON        CLOUDY    25  19  80 S5        30.00F WCI  19
BRAINERD       MOCLDY    22  15  75 S8        29.98F WCI  12
HIBBING        CLOUDY    20  12  71 S8        29.95F WCI  10
ALEXANDRIA     CLOUDY    24  21  88 SW9       29.96F WCI  14
SAINT CLOUD    PTCLDY    22  18  85 SE5       30.00F WCI  16
MINNEAPOLIS    MOCLDY    23  15  71 VRB5      30.07R WCI  17
$$

  *****  WEATHER ACROSS SOUTH DAKOTA  *****

CITY           SKY/WX    TMP DP  RH WIND       PRES   REMARKS
SIOUX FALLS    CLOUDY    33  30  88 W3        30.02S
BROOKINGS      NOT AVBL
WATERTOWN      CLOUDY    30  28  92 S7        29.96F WCI  23
HURON          CLOUDY    33  30  88 S8        29.98F
SISSETON         N/A     25  22  88 S10       29.95F WCI  15
ABERDEEN       CLOUDY    31  29  92 S8        29.95F WCI  23
MITCHELL       PTCLDY    34  31  88 S6        30.00F
PIERRE         MOCLDY    34  28  79 S6        29.93F
MOBRIDGE       CLOUDY    35  30  82 SE8       29.88F
RAPID CITY     CLEAR     36  22  56 CALM      29.96R
$$

  *****  SOME WEATHER IN NEARBY STATES *****

CITY           SKY/WX    TMP DP  RH WIND       PRES   REMARKS
GLASGOW MT     CLEAR     41  34  76 W7        29.89R
GREAT FALLS MT CLOUDY    52  31  44 SW21      30.06S
CHEYENNE WY    CLEAR     42  26  53 NW7       30.17R
SCOTTSBLUFF NE CLEAR     40  32  73 NW9       30.10R
OMAHA NE       CLOUDY    37  32  82 NW7       30.08S
DES MOINES IA  CLOUDY    33  26  75 N8        30.07S
DAVENPORT IA   CLEAR     17  11  77 N9        30.04R WCI   6
CHICAGO IL     PTCLDY    26  16  65 NE10      29.97R WCI  16
EAU CLAIRE WI  PTCLDY    19  10  68 CALM      30.05F
LA CROSSE WI   CLOUDY    21  15  78 N5        30.08R WCI  15
$$

  *****  SOME NATIONAL WEATHER *****

CITY           SKY/WX    TMP DP  RH WIND       PRES   REMARKS
LA GUARDIA NY  CLOUDY    33  12  41 N14       29.96R WCI  23
RALEIGH NC     PTCLDY    44  32  62 SE3       29.83F
ATLANTA GA     CLOUDY    52  32  46 S7        29.75F
NEW ORLEANS LA CLEAR     57  43  59 W15       29.92R
OKLAHOMA CITY  CLEAR     46  26  45 N9        30.13R
ALBUQUERQUE NM PTCLDY    48  25  40 N7        30.28R
SALT LAKE CITY PTCLDY    38  32  79 NW8       30.41S
LOS ANGELES CA MOCLDY    69  33  26 SW7       29.99R
BOISE ID       CLEAR     36  32  85 CALM      30.40S
SEATTLE WA     PTCLDY    53  47  79 NW3       30.06S
$$

*** WEATHER ACROSS MANITOBA...SASKATCHEWAN AND ONTARIO ***
                ***ONTARIO***

CITY           SKY/WX    TMP DP  RH WIND       PRES   REMARKS
GERALDTON      PTCLDY   -17 -20  83 CALM      29.98F
THUNDER BAY    MOCLDY     1  -4  78 NW5       30.06  WCI  -8
SIOUX LOOKOUT  FLURRIES  12   5  73 S9        29.85F WCI   0
TORONTO        MOCLDY    10   0  61 N15       30.06S WCI  -6
BIG TROUT LK   CLOUDY     1  -4  78 S8        29.84F WCI -12
PICKLE LAKE    MOCLDY     5  -4  66 S10       29.82F WCI -10
DRYDEN         CLOUDY    12   9  85 S10       29.84F WCI  -1
KENORA         CLOUDY    12   7  79 S12       29.80F WCI  -2
$$
                *** MANITOBA***

CITY           SKY/WX    TMP DP  RH WIND       PRES   REMARKS
BRANDON        CLOUDY    30  28  93 SW23      29.61F WCI  17
DAUPHIN        CLEAR     34  27  75 W21G29    29.53F WCI  22
ISLAND LAKE    LGT SNOW   9   5  85 SE10      29.65F VSB 1   WCI  -6
PILOT MOUND      N/A     25  23  93 S25         N/A  WCI   9
THE PAS        CLOUDY    28  27  93 W5        29.41S WCI  23
THOMPSON       LGT SNOW   5   1  85 E7        29.58F WCI  -7
WINNIPEG       CLOUDY    19  14  79 S24       29.72  WCI   2
LYNN LAKE      FLURRIES   3   1  92 NE7       29.57R WCI  -9
CHURCHILL      PTCLDY   -11 -17  77 SE10      29.87S WCI -30
GILLAM         LGT SNOW   1  -2  85 E3        29.72F
$$
                ***SASKATCHEWAN***

CITY           SKY/WX    TMP DP  RH WIND       PRES   REMARKS
ESTEVAN        PTCLDY    37  32  81 W17G25    29.72
KINDERSLEY     PTCLDY    37  32  81 SW5       29.81S
LLOYDMINSTER   CLEAR     39  28  65 W16       29.74R
PRINCE ALBERT  PTCLDY    41  30  65 W14G20    29.59R
REGINA         MOCLDY    37  32  81 W20       29.73R
YORKTON        PTCLDY    39  32  75 W18G24    29.58R
N. BATTLEFORD  CLEAR     39  32  75 W12       29.74R
LA RONGE       LGT RAIN  37  36  93 W13       29.51R
SASKATOON      CLEAR     39  30  70 W13       29.72R
SWIFT CURRENT  MOCLDY    41  36  81 SW12      29.84R
$$
NOTE: THESE ARE AUTOMATED STATIONS WITH LIMITED QUALITY CONTROL
      "FAIR" INDICATES FEW OR NO CLOUDS BELOW 12,000 FEET WITH NO
      SIGNIFICANT WEATHER AND/OR OBSTRUCTIONS TO VISIBILITY.
      SKY/WX - SKY CONDITION AND SIGNIFICANT WEATHER.
      TMP - AIR TEMPERATURE.    DP   - DEWPOINT TEMPERATURE.
      RH  - RELATIVE HUMIDITY.  PRES - PRESSURE.
      HX  - HEAT INDEX.         WCI  - WIND CHILL INDEX.
$


USA.gov is the U.S. government's official web portal to all federal, state and local government web resources and services.